Home > Weather > Tucson > Past weeks

Flag for USA Weather for the Past 2 Weeks in Tucson, Arizona, USA

Now
70 °F

Sunny.


Feels Like: 70 °F
Forecast: 57 / 90 °F
Wind: 6 mph from South

Location: Davis-Monthan Air Force Base

Current Time: May 3, 2016 at 8:34:31 AM

Latest Report: May 3, 2016 at 7:58 AM


Visibility: 10 mi

Pressure: 29.88 "Hg (27.36 "Hg at 758m altitude)

Humidity: 25%

Dew Point: 32 °F

Location of TucsonLocation

Historic Weather in Tucson — Graph

°F

Tucson Temperature Yesterday

Maximum temperature yesterday: 83 °F (at 4:58 PM)
Minimum temperature yesterday: 53 °F (at 3:58 AM)
Average temperature yesterday: 70 °F

High & Low Weather Summary for the Past Weeks

 TemperatureHumidityPressure
High93 °F (Apr 22, 2:58 PM)58% (Apr 24, 4:58 AM)30.05 "Hg (Apr 24, 4:58 AM)
Low49 °F (Apr 27, 4:58 AM)4% (Apr 21, 4:58 PM)29.53 "Hg (Apr 30, 3:58 PM)
Average69 °F23%29.80 "Hg
* Reported Apr 18 6:58 AM — May 3 6:58 AM, Tucson, Weather by CustomWeather, © 2016

Note: Actual official high and low records may vary slightly from our data, if they occured in-between our weather recording intervals... More about our weather records

Advertising

Tucson Weather History for the Previous 24 Hours

Scroll right to see more
 ConditionsComfort  
Time TempWeatherWind HumidityBarometerVisibility
6:58 AM
Tue, May 3
61 °FSunny.7 mph33%29.89 "Hg10 mi
5:58 AM55 °FSunny.6 mph40%29.87 "Hg10 mi
4:58 AM55 °FClear.6 mph39%29.85 "Hg10 mi
3:58 AM55 °FClear.7 mph39%29.85 "Hg10 mi
2:58 AM58 °FClear.6 mph36%29.84 "Hg10 mi
1:58 AM60 °FClear.7 mph34%29.84 "Hg10 mi
12:58 AM61 °FClear.7 mph32%29.85 "Hg10 mi
11:58 PM
Mon, May 2
67 °FClear.1 mph26%29.85 "Hg10 mi
10:58 PM71 °FClear.8 mph23%29.84 "Hg7 mi
9:58 PM73 °FClear.12 mph22%29.84 "Hg10 mi
8:58 PM74 °FClear.13 mph21%29.83 "Hg10 mi
7:58 PM76 °FClear.8 mph16%29.83 "Hg10 mi
6:58 PM80 °FSunny.8 mph15%29.80 "Hg10 mi
4:58 PM83 °FSunny.3 mph14%29.81 "Hg10 mi
3:58 PM83 °FSunny.5 mph15%29.83 "Hg10 mi
2:58 PM83 °FSunny.1 mph15%29.84 "Hg10 mi
1:58 PM80 °FSunny.3 mph16%29.88 "Hg10 mi
12:58 PM79 °FPassing clouds.2 mph16%29.90 "Hg10 mi
11:58 AM79 °FPassing clouds.13 mph16%29.92 "Hg10 mi
10:58 AM76 °FSunny.8 mph19%29.93 "Hg10 mi
9:58 AM73 °FSunny.6 mph24%29.94 "Hg10 mi
8:58 AM69 °FSunny.5 mph29%29.96 "Hg10 mi
Weather by CustomWeather, © 2016

See weather overviewHow to use our weather pages